KQ5S-13 Weather Reports


Display with metric or nautical units.
time (UTC)temp
F
wind
direction
speed
MPH
gust
MPH
rain 1hr
in
rain 24hr
in
rain mn
in
humidity
%
barometer
mb
20260906092516 76 0.0 0.0 0.00 0.00 0.00 86 1012.7
20260906091516 76 0.0 0.0 0.00 0.00 0.00 86 1012.7
20260906090516 76 0 1.0 3.0 0.00 0.00 0.00 86 1013.0
20260906085516 76 23 2.0 5.0 0.00 0.00 0.00 87 1013.2
20260906084516 76 45 3.0 9.0 0.00 0.00 0.00 90 1013.6
20260906083516 76 0 2.0 5.0 0.00 0.00 0.00 91 1013.8
20260906082536 76 315 1.0 3.0 0.00 0.00 0.00 91 1013.6
20260906081516 76 0 1.0 4.0 0.00 0.00 0.00 91 1013.4
20260906080516 76 0.0 0.0 0.00 0.00 0.00 90 1013.2
20260906075515 76 0.0 2.0 0.00 0.00 0.00 90 1013.3
20260906074536 76 68 1.0 2.0 0.00 0.00 0.00 90 1013.5
20260906073515 76 0.0 1.0 0.00 0.00 0.00 90 1013.4
20260906072535 76 293 1.0 2.0 0.00 0.00 0.00 90 1013.2
20260906071515 76 0.0 2.0 0.00 0.00 0.00 90 1013.2
20260906070516 76 315 1.0 4.0 0.00 0.00 0.00 90 1013.1
20260906065515 76 293 1.0 3.0 0.00 0.00 0.00 90 1013.0
20260906064515 75 0.0 4.0 0.00 0.00 0.00 89 1012.9
20260906063515 75 0.0 0.0 0.00 0.00 0.00 88 1013.0
20260906062515 76 0.0 1.0 0.00 0.00 0.00 87 1013.1
20260906061516 76 0.0 0.0 0.00 0.00 0.00 87 1013.3
20260906060515 76 180 1.0 3.0 0.00 0.00 0.00 86 1013.3
20260906055516 76 0.0 1.0 0.00 0.00 0.00 86 1013.4
20260906054515 76 0.0 3.0 0.00 0.00 0.00 85 1013.4
20260906053517 77 270 1.0 3.0 0.00 0.00 0.00 85 1013.2
20260906052558 77 158 1.0 2.0 0.00 0.00 0.00 84 1013.4
20260906051517 77 0.0 1.0 0.00 0.00 0.00 83 1013.4
20260906050518 77 0.0 2.0 0.00 0.00 0.00 83 1013.5
20260906045516 78 0 1.0 2.0 0.00 0.00 0.00 82 1013.6
20260906044516 78 0 1.0 2.0 0.00 0.00 0.00 81 1013.6
20260906043516 78 0.0 0.0 0.00 0.00 0.00 80 1013.6
20260906042516 79 0.0 1.0 0.00 0.00 0.00 80 1013.6
20260906041516 79 0.0 2.0 0.00 0.00 0.00 79 1013.6
20260906040536 80 0.0 2.0 0.00 0.00 0.00 78 1013.8
20260906035516 80 0.0 2.0 0.00 0.00 0.00 77 1013.7
20260906034516 80 0.0 0.0 0.00 0.00 0.00 76 1013.6
20260906033516 80 0.0 0.0 0.00 0.00 0.00 76 1013.6
20260906032516 81 0.0 0.0 0.00 0.00 0.00 74 1013.6
20260906031516 82 0.0 0.0 0.00 0.00 0.00 74 1013.5
20260906030536 82 0.0 0.0 0.00 0.00 0.00 72 1013.4
20260906025516 82 0.0 0.0 0.00 0.00 0.00 71 1013.4
20260906024535 82 90 1.0 2.0 0.00 0.00 0.00 71 1013.3
20260906023516 82 90 1.0 3.0 0.00 0.00 0.00 70 1013.2
20260906022516 82 90 1.0 2.0 0.00 0.00 0.00 69 1013.1
20260906021536 83 68 2.0 4.0 0.00 0.00 0.00 68 1013.1
20260906020515 83 68 2.0 4.0 0.00 0.00 0.00 67 1013.1
20260906015536 83 68 3.0 4.0 0.00 0.00 0.00 66 1012.9
20260906014535 83 68 2.0 3.0 0.00 0.00 0.00 66 1012.9
20260906013516 83 45 2.0 4.0 0.00 0.00 0.00 68 1012.9
20260906012515 83 68 2.0 5.0 0.00 0.00 0.00 68 1012.4
20260906011515 84 45 2.0 4.0 0.00 0.00 0.00 72 1012.1
20260906010516 84 45 1.0 3.0 0.00 0.00 0.00 71 1011.7
20260906005515 85 90 2.0 4.0 0.00 0.00 0.00 72 1011.1
20260906004515 86 0.0 0.0 0.00 0.00 0.00 69 1011.1
20260906003518 86 0 1.0 2.0 0.00 0.00 0.00 68 1011.2
20260906002535 87 68 1.0 2.0 0.00 0.00 0.00 66 1011.3
20260906001515 87 90 1.0 3.0 0.00 0.00 0.00 66 1011.7
20260906000515 88 90 1.0 3.0 0.00 0.00 0.00 65 1011.6
20260905235535 88 68 2.0 4.0 0.00 0.00 0.00 64 1011.7
20260905234515 88 90 2.0 4.0 0.00 0.00 0.00 63 1011.7
20260905233516 89 90 4.0 8.0 0.00 0.00 0.00 62 1011.9
20260905232515 90 90 2.0 3.0 0.00 0.00 0.00 64 1011.9
20260905231515 91 315 1.0 3.0 0.00 0.00 0.00 61 1011.6
20260905230516 91 0 1.0 3.0 0.00 0.00 0.00 60 1011.3
20260905225515 92 0 2.0 7.0 0.00 0.00 0.00 58 1011.3
20260905224535 93 68 3.0 8.0 0.00 0.00 0.00 57 1011.5
20260905223518 94 338 2.0 9.0 0.00 0.00 0.00 56 1011.6
20260905222537 95 270 1.0 3.0 0.00 0.00 0.00 55 1011.6
20260905221517 95 248 2.0 4.0 0.00 0.00 0.00 55 1011.6
20260905220517 95 293 1.0 4.0 0.00 0.00 0.00 55 1011.7
20260905215517 95 293 2.0 3.0 0.00 0.00 0.00 55 1011.7
20260905214518 95 293 2.0 4.0 0.00 0.00 0.00 53 1011.8
20260905213537 95 270 1.0 4.0 0.00 0.00 0.00 54 1011.8
20260905212517 95 45 1.0 4.0 0.00 0.00 0.00 54 1011.8
20260905211537 94 270 1.0 3.0 0.00 0.00 0.00 54 1011.7
20260905210517 94 270 2.0 4.0 0.00 0.00 0.00 54 1011.8
20260905205517 94 68 2.0 6.0 0.00 0.00 0.00 54 1011.8
20260905204537 94 338 2.0 8.0 0.00 0.00 0.00 52 1011.9
20260905203517 94 270 2.0 4.0 0.00 0.00 0.00 56 1012.1
20260905202537 94 315 2.0 7.0 0.00 0.00 0.00 54 1012.2
20260905201517 94 270 2.0 4.0 0.00 0.00 0.00 54 1012.3
20260905200537 94 338 2.0 4.0 0.00 0.00 0.00 54 1012.5
20260905195517 94 68 3.0 8.0 0.00 0.00 0.00 55 1012.6
20260905194517 94 315 2.0 6.0 0.00 0.00 0.00 56 1012.7
20260905193517 94 315 2.0 5.0 0.00 0.00 0.00 56 1012.7
20260905192517 94 338 2.0 5.0 0.00 0.00 0.00 55 1013.0
20260905191537 93 293 2.0 7.0 0.00 0.00 0.00 57 1013.1
20260905190517 93 45 3.0 8.0 0.00 0.00 0.00 54 1013.2
20260905185517 93 248 2.0 7.0 0.00 0.00 0.00 56 1013.4
20260905184517 93 338 3.0 12.0 0.00 0.00 0.00 55 1013.5
20260905183537 93 315 2.0 4.0 0.00 0.00 0.00 56 1013.6
20260905182517 93 270 2.0 6.0 0.00 0.00 0.00 57 1013.8
20260905181517 93 315 2.0 4.0 0.00 0.00 0.00 58 1014.0
20260905180517 93 315 3.0 6.0 0.00 0.00 0.00 57 1014.1
20260905175537 93 315 3.0 8.0 0.00 0.00 0.00 58 1014.3
20260905174517 92 270 3.0 5.0 0.00 0.00 0.00 59 1014.3
20260905173517 92 293 2.0 4.0 0.00 0.00 0.00 60 1014.3
20260905172517 92 315 2.0 5.0 0.00 0.00 0.00 60 1014.5
20260905171517 92 338 2.0 5.0 0.00 0.00 0.00 59 1014.6
20260905170557 93 338 2.0 5.0 0.00 0.00 0.00 59 1014.7
20260905165517 93 338 2.0 4.0 0.00 0.00 0.00 60 1014.8
20260905164517 93 248 2.0 5.0 0.00 0.00 0.00 63 1015.0
20260905163516 94 338 2.0 6.0 0.00 0.00 0.00 61 1015.0
20260905162537 94 0 2.0 4.0 0.00 0.00 0.00 62 1015.2
20260905161516 93 338 3.0 6.0 0.00 0.00 0.00 66 1015.4
20260905160516 93 45 2.0 5.0 0.00 0.00 0.00 64 1015.4
20260905155517 93 315 2.0 4.0 0.00 0.00 0.00 62 1015.4
20260905154516 92 315 3.0 8.0 0.00 0.00 0.00 66 1015.5
20260905153517 92 338 2.0 7.0 0.00 0.00 0.00 68 1015.5
20260905152516 91 68 2.0 6.0 0.00 0.00 0.00 67 1015.5
20260905151517 91 68 2.0 4.0 0.00 0.00 0.00 67 1015.4
20260905150517 91 68 2.0 4.0 0.00 0.00 0.00 70 1015.5
20260905145516 90 338 2.0 4.0 0.00 0.00 0.00 72 1015.5
20260905144516 88 68 4.0 9.0 0.00 0.00 0.00 75 1015.5
20260905143516 87 68 1.0 5.0 0.00 0.00 0.00 78 1015.6
20260905142517 85 315 1.0 4.0 0.00 0.00 0.00 80 1015.6
20260905141516 84 315 1.0 4.0 0.00 0.00 0.00 83 1015.5
20260905140516 82 270 1.0 2.0 0.00 0.00 0.00 86 1015.5
20260905135536 81 338 2.0 4.0 0.00 0.00 0.00 87 1015.5
20260905134517 80 338 1.0 4.0 0.00 0.00 0.00 90 1015.5
20260905133516 79 0 1.0 3.0 0.00 0.00 0.00 92 1015.6
20260905132517 78 0.0 1.0 0.00 0.00 0.00 92 1015.6
20260905131516 77 0.0 0.0 0.00 0.00 0.00 93 1015.8
20260905130536 77 0.0 0.0 0.00 0.00 0.00 94 1015.8
20260905125516 76 0.0 0.0 0.00 0.00 0.00 94 1015.8
20260905124516 75 0.0 2.0 0.00 0.00 0.00 95 1015.8
20260905123516 74 0.0 0.0 0.00 0.00 0.00 95 1015.6
20260905122516 74 0.0 0.0 0.00 0.00 0.00 95 1015.6
20260905121516 73 0.0 0.0 0.00 0.00 0.00 94 1015.7
20260905120516 73 0.0 0.0 0.00 0.00 0.00 94 1015.5
20260905115516 73 0.0 0.0 0.00 0.00 0.00 94 1015.5
20260905114516 73 0.0 0.0 0.00 0.00 0.00 94 1015.4
20260905113536 73 0.0 0.0 0.00 0.00 0.00 94 1015.3
20260905112516 73 0.0 0.0 0.00 0.00 0.00 94 1015.2
20260905111516 73 0.0 0.0 0.00 0.00 0.00 94 1015.0
20260905110516 73 0.0 0.0 0.00 0.00 0.00 94 1014.9
20260905105516 73 0.0 0.0 0.00 0.00 0.00 94 1014.9
20260905104516 73 0.0 0.0 0.00 0.00 0.00 94 1014.7
20260905103516 73 0.0 0.0 0.00 0.00 0.00 94 1014.7
20260905102516 73 0.0 2.0 0.00 0.00 0.00 94 1014.6
20260905101516 73 225 1.0 2.0 0.00 0.00 0.00 94 1014.6
20260905100536 73 0.0 0.0 0.00 0.00 0.00 94 1014.5
20260905095516 73 0.0 0.0 0.00 0.00 0.00 94 1014.4
20260905094516 73 0.0 0.0 0.00 0.00 0.00 93 1014.4
20260905093516 73 0.0 0.0 0.00 0.00 0.00 93 1014.5